Time,TemperatureF,DewpointF,PressureIn,WindDirection,WindDirectionDegrees,WindSpeedMPH,WindSpeedGustMPH,Humidity,HourlyPrecipIn,Conditions,Clouds,dailyrainin,SolarRadiationWatts/m^2,SoftwareType,DateUTC
2013-10-05 00:42:00,32.0,28.0,-100.00,SE,126,6.0,7.0,85,0.00,,,0.29,0.000000,,2013-10-05 06:42:00,
2013-10-05 00:52:00,32.0,28.0,-100.00,SE,126,6.0,7.0,85,0.00,,,0.29,0.000000,,2013-10-05 06:52:00,
2013-10-05 01:42:00,31.0,27.0,-100.00,SE,129,6.0,7.0,86,0.00,,,0.25,0.000000,,2013-10-05 07:42:00,
2013-10-05 01:52:00,31.0,27.0,-100.00,SE,129,6.0,7.0,86,0.00,,,0.25,0.000000,,2013-10-05 07:52:00,
2013-10-05 02:23:00,31.0,28.0,-100.00,SE,125,5.0,7.0,87,0.00,,,0.20,0.000000,,2013-10-05 08:23:00,
2013-10-05 02:32:00,31.0,28.0,-100.00,SE,125,5.0,7.0,87,0.00,,,0.20,0.000000,,2013-10-05 08:32:00,
2013-10-05 02:42:00,31.0,28.0,-100.00,SE,125,5.0,7.0,87,0.00,,,0.20,0.000000,,2013-10-05 08:42:00,
2013-10-05 02:52:00,31.0,28.0,-100.00,SE,125,5.0,7.0,87,0.00,,,0.20,0.000000,,2013-10-05 08:52:00,
2013-10-05 03:43:00,30.0,27.0,-100.00,SE,126,5.0,7.0,87,0.00,,,0.20,0.000000,,2013-10-05 09:43:00,
2013-10-05 03:54:00,30.0,27.0,-100.00,SE,126,5.0,7.0,87,0.00,,,0.20,0.000000,,2013-10-05 09:54:00,
2013-10-05 04:43:00,28.0,24.0,-100.00,SE,141,7.0,8.0,86,0.00,,,0.20,0.000000,,2013-10-05 10:43:00,
2013-10-05 04:53:00,28.0,24.0,-100.00,SE,141,7.0,8.0,86,0.00,,,0.20,0.000000,,2013-10-05 10:53:00,
2013-10-05 05:42:00,28.0,24.0,-100.00,SE,129,7.0,9.0,86,0.00,,,0.20,0.000000,,2013-10-05 11:42:00,
2013-10-05 05:52:00,28.0,24.0,-100.00,SE,129,7.0,9.0,86,0.00,,,0.20,0.000000,,2013-10-05 11:52:00,
2013-10-05 06:42:00,28.0,24.0,-100.00,SE,145,7.0,10.0,86,0.00,,,0.20,0.000000,,2013-10-05 12:42:00,
2013-10-05 06:52:00,28.0,24.0,-100.00,SE,145,7.0,10.0,86,0.00,,,0.20,0.000000,,2013-10-05 12:52:00,
2013-10-05 07:42:00,27.0,23.0,-100.00,SE,129,6.0,9.0,86,0.00,,,0.20,0.000000,,2013-10-05 13:42:00,
2013-10-05 07:52:00,27.0,23.0,-100.00,SE,129,6.0,9.0,86,0.00,,,0.20,0.000000,,2013-10-05 13:52:00,
2013-10-05 08:22:00,28.0,23.0,-100.00,SSE,148,6.0,10.0,82,0.00,,,0.20,41.000000,,2013-10-05 14:22:00,
2013-10-05 08:32:00,28.0,23.0,-100.00,SSE,148,6.0,10.0,82,0.00,,,0.20,41.000000,,2013-10-05 14:32:00,
2013-10-05 08:42:00,28.0,23.0,-100.00,SSE,148,6.0,10.0,82,0.00,,,0.20,41.000000,,2013-10-05 14:42:00,
2013-10-05 08:52:00,28.0,23.0,-100.00,SSE,148,6.0,10.0,82,0.00,,,0.20,41.000000,,2013-10-05 14:52:00,
2013-10-05 09:22:00,33.0,28.0,-100.00,SE,142,6.0,10.0,80,0.00,,,0.20,222.000000,,2013-10-05 15:22:00,
2013-10-05 09:33:00,33.0,28.0,-100.00,SE,142,6.0,10.0,80,0.00,,,0.20,222.000000,,2013-10-05 15:33:00,
2013-10-05 09:44:00,33.0,28.0,-100.00,SE,142,6.0,10.0,80,0.00,,,0.20,222.000000,,2013-10-05 15:44:00,
2013-10-05 09:53:00,33.0,28.0,-100.00,SE,142,6.0,10.0,80,0.00,,,0.20,222.000000,,2013-10-05 15:53:00,
2013-10-05 10:23:00,39.0,32.0,-100.00,SSE,154,5.0,7.0,75,0.00,,,0.19,362.000000,,2013-10-05 16:23:00,
2013-10-05 10:33:00,39.0,32.0,-100.00,SSE,154,5.0,7.0,75,0.00,,,0.19,362.000000,,2013-10-05 16:33:00,
2013-10-05 10:43:00,39.0,32.0,-100.00,SSE,154,5.0,7.0,75,0.00,,,0.19,362.000000,,2013-10-05 16:43:00,
2013-10-05 10:53:00,39.0,32.0,-100.00,SSE,154,5.0,7.0,75,0.00,,,0.19,362.000000,,2013-10-05 16:53:00,
2013-10-05 11:42:00,48.0,34.0,-100.00,WNW,299,11.0,17.0,59,0.00,,,0.09,511.000000,,2013-10-05 17:42:00,
2013-10-05 11:52:00,48.0,34.0,-100.00,WNW,299,11.0,17.0,59,0.00,,,0.09,511.000000,,2013-10-05 17:52:00,
2013-10-05 12:22:00,51.0,31.0,-100.00,West,268,16.0,22.0,46,0.00,,,0.01,603.000000,,2013-10-05 18:22:00,
2013-10-05 12:32:00,51.0,31.0,-100.00,West,268,16.0,22.0,46,0.00,,,0.01,603.000000,,2013-10-05 18:32:00,
2013-10-05 12:42:00,51.0,31.0,-100.00,West,268,16.0,22.0,46,0.00,,,0.01,603.000000,,2013-10-05 18:42:00,
2013-10-05 12:52:00,51.0,31.0,-100.00,West,268,16.0,22.0,46,0.00,,,0.01,603.000000,,2013-10-05 18:52:00,
2013-10-05 13:22:00,54.0,31.0,-100.00,WNW,283,14.0,24.0,41,0.00,,,0.00,636.000000,,2013-10-05 19:22:00,
2013-10-05 13:32:00,54.0,31.0,-100.00,WNW,283,14.0,24.0,41,0.00,,,0.00,636.000000,,2013-10-05 19:32:00,
2013-10-05 13:42:00,54.0,31.0,-100.00,WNW,283,14.0,24.0,41,0.00,,,0.00,636.000000,,2013-10-05 19:42:00,
2013-10-05 13:52:00,54.0,31.0,-100.00,WNW,283,14.0,24.0,41,0.00,,,0.00,636.000000,,2013-10-05 19:52:00,
2013-10-05 14:22:00,54.0,30.0,-100.00,West,270,17.0,25.0,39,0.00,,,0.00,586.000000,,2013-10-05 20:22:00,
2013-10-05 14:32:00,54.0,30.0,-100.00,West,270,17.0,25.0,39,0.00,,,0.00,586.000000,,2013-10-05 20:32:00,
2013-10-05 14:42:00,54.0,30.0,-100.00,West,270,17.0,25.0,39,0.00,,,0.00,586.000000,,2013-10-05 20:42:00,
2013-10-05 14:52:00,54.0,30.0,-100.00,West,270,17.0,25.0,39,0.00,,,0.00,586.000000,,2013-10-05 20:52:00,
2013-10-05 15:44:00,54.0,29.0,-100.00,West,275,15.0,26.0,38,0.00,,,0.00,478.000000,,2013-10-05 21:44:00,
2013-10-05 15:54:00,54.0,29.0,-100.00,West,275,15.0,26.0,38,0.00,,,0.00,478.000000,,2013-10-05 21:54:00,
2013-10-05 16:42:00,55.0,29.0,-100.00,West,275,15.0,24.0,37,0.00,,,0.00,380.000000,,2013-10-05 22:42:00,
2013-10-05 16:53:00,55.0,29.0,-100.00,West,275,15.0,24.0,37,0.00,,,0.00,380.000000,,2013-10-05 22:53:00,
2013-10-05 17:42:00,55.0,30.0,-100.00,West,268,19.0,26.0,38,0.00,,,0.00,279.000000,,2013-10-05 23:42:00,
2013-10-05 17:53:00,55.0,30.0,-100.00,West,268,19.0,26.0,38,0.00,,,0.00,279.000000,,2013-10-05 23:53:00,
2013-10-05 18:23:00,50.0,29.0,-100.00,West,259,13.0,26.0,44,0.00,,,-99.99,106.000000,,2013-10-06 00:23:00,
2013-10-05 18:32:00,50.0,29.0,-100.00,West,259,13.0,26.0,44,0.00,,,-99.99,106.000000,,2013-10-06 00:32:00,
2013-10-05 18:43:00,50.0,29.0,-100.00,West,259,13.0,26.0,44,0.00,,,-99.99,106.000000,,2013-10-06 00:43:00,
2013-10-05 18:52:00,50.0,29.0,-100.00,West,259,13.0,26.0,44,0.00,,,-99.99,106.000000,,2013-10-06 00:52:00,
2013-10-05 19:42:00,48.0,29.0,-100.00,West,264,12.0,20.0,48,0.00,,,0.00,17.000000,,2013-10-06 01:42:00,
2013-10-05 19:52:00,48.0,29.0,-100.00,West,264,12.0,20.0,48,0.00,,,0.00,17.000000,,2013-10-06 01:52:00,
2013-10-05 20:42:00,47.0,29.0,-100.00,WSW,254,11.0,20.0,49,0.00,,,0.00,0.000000,,2013-10-06 02:42:00,
2013-10-05 20:52:00,47.0,29.0,-100.00,WSW,254,11.0,20.0,49,0.00,,,0.00,0.000000,,2013-10-06 02:52:00,
2013-10-05 21:22:00,48.0,31.0,-100.00,West,264,13.0,22.0,51,0.00,,,0.00,0.000000,,2013-10-06 03:22:00,
2013-10-05 21:34:00,48.0,31.0,-100.00,West,264,13.0,22.0,51,0.00,,,0.00,0.000000,,2013-10-06 03:34:00,
2013-10-05 21:44:00,48.0,31.0,-100.00,West,264,13.0,22.0,51,0.00,,,0.00,0.000000,,2013-10-06 03:44:00,
2013-10-05 21:54:00,48.0,31.0,-100.00,West,264,13.0,22.0,51,0.00,,,0.00,0.000000,,2013-10-06 03:54:00,
2013-10-05 22:44:00,48.0,30.0,-100.00,West,259,8.0,22.0,50,0.00,,,0.00,0.000000,,2013-10-06 04:44:00,
2013-10-05 22:54:00,48.0,30.0,-100.00,West,259,8.0,22.0,50,0.00,,,0.00,0.000000,,2013-10-06 04:54:00,
2013-10-05 23:22:00,47.0,31.0,-100.00,NNW,328,4.0,15.0,53,0.00,,,0.00,0.000000,,2013-10-06 05:22:00,
2013-10-05 23:33:00,47.0,31.0,-100.00,NNW,328,4.0,15.0,53,0.00,,,0.00,0.000000,,2013-10-06 05:33:00,
2013-10-05 23:42:00,47.0,31.0,-100.00,NNW,328,4.0,15.0,53,0.00,,,0.00,0.000000,,2013-10-06 05:42:00,
2013-10-05 23:52:00,47.0,31.0,-100.00,NNW,328,4.0,15.0,53,0.00,,,0.00,0.000000,,2013-10-06 05:52:00,